SL-14 DEB, 45356

Orbit data source: Space-Track

SL-14 DEB, 45356 is space debris in LEO originally from a launch on Thu, 15 Aug 1991 UTC launched from the Plesetsk Missile And Space Complex (PKMTR). Debris objects in space refer to the collection of defunct objects orbiting the Earth. Examples of debris include non-operational satellites, rocket bodies, and fragments generated from explosions, collisions, or faulty payload assembly.

Loading next visibility...
Identifier
45356, 1991-056CQ
Orbit
LEO
Country
Flag of CISCIS
Related business
Manufacturer
Unknown
Mission
Spacecraft
Bus & Motor
Unknown
Mass
Unknown
Launch date (UTC)
1991-08-15 (34 years ago)
Launch vehicle
Unknown
Launch site
Plesetsk Missile And Space Complex (PKMTR)
Object type
Payload
Rocket body
Debris
Shape & HBR
Unknown shape, 0.1 m
Radar Cross Section
Small (<0.1 m²)

Expand to show TLE details & history
Last TLE update: 1 day ago

TLE from 1 day ago
0 SL-14 DEB
1 45356U 91056CQ  25286.74930544  .00000506  00000-0  11055-2 0  9998
2 45356  82.6108 303.0217 0039861 230.2338 129.5277 13.26718835271753
Epoch: 2025-10-13T17:58Z
TLE epoch observation values (Epoch: 2025-10-13T17:58:59.990Z)
Latitude
0.00003°
Longitude
10.72413°
Altitude
1,181.184 km
Speed
7.254 km/s
True Right ascension
20h 12m 05s
True Declination
0° 00' 00"
Sunlit
Object was in daylight at epoch
Visualization orbit readout
Latitude
Unknown
Longitude
Unknown
Altitude
Unknown
Speed
Unknown
Apparent Right ascension
Unknown
Apparent Declination
Unknown
Sunlit
N/A
Visualization observer readout
Local Sidereal Time
13:50:14
Azimuth
Unknown
Elevation
Unknown
Doppler factor
Unknown
Orbital elements
Apogee altitude
1,186.427 km
Perigee altitude
1,126.36 km
Semi-major axis
7,534.531 km
Eccentricity
0.00399
Inclination
82.6108°
RAAN
303.0217°
Arg. of periapsis
230.2338°
True anomaly
129.8789°
Mean anomaly
129.5277°
Eccentric anomaly
129.70341°
Mean motion
3.31863 °/min
Orbital period
108.48 mins
BSTAR
0.0011055
Loading maneuver chart data...
Computing Atmospheric mass density...
Loading historical data...
Loading historical data...
Loading historical data...
Loading historical data...
Loading historical data...
Loading historical data...
Loading historical data...

Documentation

Showing up to 5 results
|